This demonstration page uses our WeatherBlox Daily Observations layout. Learn more.

Left ArrowRight Arrow

Hourly Observations for May 9, 2021

Temp ( °F °C ) Dew Point ( °F °C ) Humidity (%) Winds ( mph kmh ) Pressure ( in mb ) Visibility ( mi km ) Precip ( " mm )
12:53 am 00:53 Cloudy with Light Rain 38 3.3 36 2.2 93 93 ENE 12 19 30.06 1018 10 16 0.00 0.00
1:48 am 01:48 Cloudy with Light Rain 37 3 36 2 93 93 ENE 10 17 30.09 1019 10 16 0.02 0.51
1:53 am 01:53 Cloudy 38 3.3 36 2.2 93 93 ENE 10 17 30.06 1018 10 16 0.02 0.51
2:08 am 02:08 Cloudy 37 3 36 2 93 93 ENE 12 19 30.09 1019 9 14 N/A
2:53 am 02:53 Cloudy with Light Rain 37 2.8 35 1.7 93 93 E 13 20 30.08 1019 6 10 0.01 0.25
3:53 am 03:53 Cloudy with Light Rain 37 2.8 36 2.2 96 96 E 9 15 30.08 1019 5 8 0.01 0.25
4:18 am 04:18 Cloudy 37 2.8 36 2.2 96 96 E 8 13 30.11 1020 8 13 0.01 0.25
4:53 am 04:53 Cloudy 37 2.8 36 2.2 96 96 ENE 7 11 30.08 1019 10 16 0.01 0.25
5:09 am 05:09 Cloudy 38 3.3 36 2.2 93 93 ENE 8 13 30.11 1019 10 16 N/A
5:20 am 05:20 Cloudy 38 3.3 36 2.2 93 93 ENE 9 15 30.11 1019 10 16 N/A
5:38 am 05:38 Cloudy 37 2.8 36 2.2 96 96 ENE 9 15 30.12 1020 10 16 N/A
5:53 am 05:53 Cloudy 37 2.8 36 2.2 96 96 E 10 17 30.10 1019 10 16 N/A
6:53 am 06:53 Cloudy with Mist and Fog 37 2.8 35 1.7 93 93 E 12 19 30.12 1020 5 8 0.00 0.00
7:40 am 07:40 Cloudy with Mist and Fog 37 2.8 36 2.2 96 96 ENE 12 19 30.15 1021 2 3 0.01 0.25
7:53 am 07:53 Cloudy with Mist and Fog 37 2.8 36 2.2 96 96 ENE 15 24 30.14 1021 2 3 0.01 0.25
8:17 am 08:17 Cloudy with Mist and Fog 38 3.3 36 2.2 93 93 E 14 22 30.16 1021 2 3 N/A
8:37 am 08:37 Cloudy with Mist and Fog 38 3.3 37 2.8 97 97 E 14 22 30.17 1022 3 4 N/A
8:53 am 08:53 Cloudy with Mist and Fog 38 3.3 37 2.8 97 97 E 13 20 30.16 1021 3 5 N/A
9:53 am 09:53 Cloudy 39 3.9 37 2.8 93 93 E 14 22 30.18 1022 10 16 N/A
10:53 am 10:53 Cloudy 39 3.9 37 2.8 93 93 E 10 17 30.19 1022 10 16 N/A
11:23 am 11:23 Cloudy 41 5 37 2.8 86 86 ENE 13 20 30.19 1022 10 16 N/A
11:53 am 11:53 Cloudy 41 5 38 3.3 89 89 ENE 14 22 30.20 1023 10 16 N/A
12:53 pm 12:53 Cloudy 43 6.1 37 2.8 80 80 ENE 13 20 30.19 1023 10 16 N/A
1:40 pm 13:40 Cloudy 45 7 37 3 76 76 ENE 16 26 30.18 1022 10 16 N/A
1:53 pm 13:53 Cloudy 44 6.7 38 3.3 79 79 ENE 13 20 30.20 1023 10 16 N/A
3:11 pm 15:11 Cloudy 45 7.2 39 3.9 80 80 E 17 28 30.19 1022 10 16 N/A
3:21 pm 15:21 Cloudy 45 7.2 39 3.9 80 80 ENE 15 24 30.19 1022 10 16 N/A
4:15 pm 16:15 Cloudy 46 7.8 38 3.3 73 73 ENE 16 26 30.19 1022 10 16 N/A
4:53 pm 16:53 Cloudy 46 7.8 38 3.3 73 73 undefined N/A 30.22 1024 10 16 N/A
5:33 pm 17:33 Cloudy 46 7.8 38 3.3 73 73 ENE 16 26 30.20 1023 10 16 N/A
5:53 pm 17:53 Cloudy 47 8.3 38 3.3 71 71 E 15 24 30.23 1024 10 16 N/A
6:41 pm 18:41 Cloudy 45 7.2 37 2.8 74 74 E 14 22 30.22 1023 10 16 N/A
6:53 pm 18:53 Cloudy 45 7.2 36 2.2 71 71 E 14 22 30.24 1024 10 16 N/A
7:16 pm 19:16 Cloudy 45 7.2 36 2.2 71 71 E 12 19 30.23 1024 10 16 N/A
7:53 pm 19:53 Cloudy 45 7.2 37 2.8 74 74 E 12 19 30.25 1025 10 16 N/A
8:53 pm 20:53 Cloudy 44 6.7 37 2.8 76 76 E 12 19 30.27 1025 10 16 N/A
9:53 pm 21:53 Cloudy 42 5.6 37 2.8 82 82 ENE 7 11 30.28 1025 10 16 N/A
10:53 pm 22:53 Clear 38 3.3 35 1.7 89 89 ENE 6 9 30.28 1025 10 16 N/A
11:53 pm 23:53 Clear 38 3.3 35 1.7 89 89 ENE 9 15 30.27 1025 10 16 N/A

Powered by AerisWeather